Weather History for Palmer, AK

Change the Weather History Date:

Wednesday, February 20, 2013

  Actual Average Record
Temperature  
Mean Temperature 16 °F -  
Max Temperature 21 °F 25 °F 46 °F (1977)
Min Temperature 12 °F 8 °F -20 °F (1974)
Degree Days  
Heating Degree Days 48    
Moisture  
Dew Point 11 °F    
Average Humidity 82    
Maximum Humidity 92    
Minimum Humidity 62    
Precipitation  
Precipitation 0.01 in - - ()
Sea Level Pressure  
Sea Level Pressure 29.18 in    
Wind  
Wind Speed 4 mph (ENE)    
Max Wind Speed 14 mph    
Max Gust Speed -    
Visibility 7 miles    
Events Snow    
Averages and records for this station are not official NWS values.
T = Trace of Precipitation, MM = Missing Value Source: NWS Daily Summary

Daily Weather History Graph

Daily Weather History Graph

Search for Another Location

Airport:

Trip Planner

Search our weather history database for the weather conditions in past years. The results will help you decide how hot, cold, wet, or windy it might be!

Date:

Astronomy

Feb. 20, 2013 Rise Set
Actual Time 8:24 AM AKST 5:57 PM AKST
Civil Twilight 7:38 AM AKST 6:42 PM AKST
Nautical Twilight 6:48 AM AKST 7:33 PM AKST
Astronomical Twilight 5:57 AM AKST 8:24 PM AKST
Moon 12:29 PM AKST (2/20) 5:50 AM AKST (2/20)
Length of Visible Light 11h 03m
Length of Day
9h 33m
Waxing Gibbous, 77% of the Moon is Illuminated
Feb 20
Waxing Gibbous
Feb 25
Full
Mar 4
Last Quarter
Mar 11
New
Mar 19
First Quarter

Hourly Weather History & Observations

Time (AKST) Temp. Windchill Dew Point Humidity Pressure Visibility Wind Dir Wind Speed Gust Speed Precip Events Conditions
12:04 AM 14.0 °F 8.2 °F 10.4 °F 86% 29.29 in 2.5 mi East 3.5 mph - 0.00 in Snow Light Snow
12:27 AM 15.8 °F 1.4 °F 6.8 °F 68% 29.27 in 4.0 mi North 13.8 mph - 0.00 in Snow Light Snow
12:51 AM 15.8 °F 5.1 °F 8.6 °F 73% 29.26 in 7.0 mi NE 8.1 mph - 0.00 in   Overcast
12:53 AM 16.0 °F 8.8 °F 9.0 °F 74% 29.28 in 7.0 mi NE 4.6 mph - 0.00 in   Overcast
1:30 AM 14.0 °F 8.2 °F 10.4 °F 86% 29.25 in 2.5 mi ENE 3.5 mph - 0.00 in Snow Light Snow
1:41 AM 14.0 °F - 10.4 °F 86% 29.25 in 1.5 mi Calm Calm - 0.00 in Snow Light Snow
1:53 AM 14.0 °F - 10.9 °F 88% 29.26 in 1.8 mi Calm Calm - 0.00 in Snow Light Snow
2:00 AM 14.0 °F 8.2 °F 10.4 °F 86% 29.24 in 2.0 mi ESE 3.5 mph - 0.00 in Snow Light Snow
2:30 AM 14.0 °F 8.2 °F 10.4 °F 86% 29.23 in 2.0 mi NE 3.5 mph - 0.00 in Snow Light Snow
2:40 AM 14.0 °F - 10.4 °F 86% 29.23 in 1.8 mi Calm Calm - 0.00 in Snow Light Snow
2:53 AM 14.0 °F 6.5 °F 10.9 °F 88% 29.24 in 1.8 mi East 4.6 mph - 0.01 in Snow Light Snow
3:05 AM 14.0 °F 8.2 °F 10.4 °F 86% 29.21 in 2.0 mi East 3.5 mph - 0.00 in Snow Light Snow
3:22 AM 14.0 °F 8.2 °F 10.4 °F 86% 29.20 in 3.0 mi East 3.5 mph - 0.00 in Snow Light Snow
3:53 AM 14.0 °F - 10.9 °F 88% 29.21 in 3.0 mi Calm Calm - 0.00 in Snow Light Snow
4:53 AM 15.1 °F 9.4 °F 12.0 °F 88% 29.18 in 8.0 mi ESE 3.5 mph - 0.00 in   Overcast
5:53 AM 14.0 °F 8.2 °F 10.9 °F 88% 29.15 in 10.0 mi East 3.5 mph - N/A   Overcast
6:53 AM 14.0 °F - 10.9 °F 88% 29.12 in 10.0 mi Calm Calm - N/A   Overcast
7:53 AM 14.0 °F 8.2 °F 10.9 °F 88% 29.09 in 10.0 mi East 3.5 mph - N/A   Overcast
8:53 AM 12.9 °F - 10.9 °F 92% 29.06 in 10.0 mi Calm Calm - N/A   Mostly Cloudy
9:53 AM 15.1 °F - 12.0 °F 88% 29.07 in 10.0 mi Calm Calm - N/A   Partly Cloudy
10:53 AM 15.1 °F - 10.9 °F 84% 29.07 in 10.0 mi Calm Calm - N/A   Mostly Cloudy
11:53 AM 15.1 °F 9.4 °F 10.9 °F 84% 29.07 in 10.0 mi East 3.5 mph - N/A   Mostly Cloudy
12:53 PM 17.1 °F - 12.0 °F 81% 29.08 in 10.0 mi Calm Calm - N/A   Partly Cloudy
1:53 PM 18.0 °F - 12.0 °F 78% 29.08 in 10.0 mi Calm Calm - N/A   Mostly Cloudy
2:53 PM 19.9 °F 14.9 °F 14.0 °F 78% 29.09 in 10.0 mi SE 3.5 mph - N/A   Overcast
4:53 PM 21.0 °F 16.2 °F 14.0 °F 74% 29.12 in 10.0 mi ESE 3.5 mph - N/A   Mostly Cloudy
5:53 PM 19.0 °F - 12.9 °F 77% 29.13 in 10.0 mi Calm Calm - N/A   Mostly Cloudy
6:53 PM 19.0 °F - 14.0 °F 81% 29.14 in 10.0 mi Calm Calm - N/A   Clear
7:53 PM 18.0 °F - 14.0 °F 84% 29.16 in 10.0 mi Calm Calm - N/A   Clear
8:53 PM 17.1 °F - 12.9 °F 84% 29.18 in 10.0 mi Calm Calm - N/A   Partly Cloudy
9:27 PM 17.6 °F - 12.2 °F 79% 29.17 in 10.0 mi Calm Calm - N/A   Mostly Cloudy
9:53 PM 16.0 °F - 10.9 °F 81% 29.20 in 10.0 mi Calm Calm - N/A   Overcast
10:11 PM 15.8 °F - 12.2 °F 86% 29.19 in 10.0 mi Calm Calm - N/A   Overcast
10:53 PM 19.0 °F 10.0 °F 8.1 °F 62% 29.22 in 10.0 mi NNW 6.9 mph - N/A   Scattered Clouds
11:53 PM 19.9 °F 9.3 °F 9.0 °F 62% 29.23 in 10.0 mi NNW 9.2 mph - N/A   Overcast